Location: Allentsgschwendt
(48.4833°N, 15.3333°E)
Time: 12:39:16
(UTC+00:00)

Daily predictions for brighter satellites

Satellite Brightness Start Highest point End
(mag) Time Altitude Azimuth Time Altitude Azimuth Time Altitude Azimuth
Cosmos 1633 Rocket 3.9 18:57:38 10° N 19:01:42 35° ENE 19:05:46 10° SE
MOS 1-B Rocket 4.4 18:54:29 10° NNE 19:02:07 78° ESE 19:08:31 10° S
SJ-6B 3.5 18:58:38 10° S 19:02:28 58° W 19:06:26 10° NNW
ATLAS 5 CENTAUR R/B 2.4 18:57:22 10° NW 19:02:53 89° SW 19:09:27 10° SE
MOS 1 4.4 18:57:34 10° SSE 19:03:15 90° ESE 19:08:59 10° NNW
Meteor 1-25 Rocket 4.4 18:58:57 10° N 19:04:48 69° ENE 19:10:37 10° SSE
Cosmos 1386 Rocket 4.5 19:02:06 10° N 19:08:10 84° E 19:14:17 10° S
USA 306 3.7 19:04:29 10° WNW 19:08:39 49° NNE 19:12:48 10° E
Cosmos 1503 Rocket 4.1 19:04:22 10° S 19:09:25 58° ESE 19:14:32 10° NNE
Cosmos 1328 Rocket 4.5 19:09:07 10° SSE 19:12:59 30° E 19:16:51 10° NNE
Cosmos 1812 4.4 19:12:33 10° SE 19:15:06 17° E 19:17:40 10° NE
Cosmos 1844 3.8 19:10:31 10° SSW 19:16:15 89° WNW 19:21:57 10° NNE
Ariane Rocket 3.3 19:13:06 10° S 19:18:08 71° WSW 19:23:13 10° NNW
SOZ 4.3 19:15:03 10° WSW 19:18:12 87° SSE 19:20:24 10° ENE
ARIANE 5 R/B 3.9 19:15:02 10° ESE 19:18:36 26° ENE 19:22:12 10° N
Cosmos 1833 Rocket 3.3 19:14:43 10° NNW 19:20:08 44° NE 19:25:22 11° SE
SL-4 R/B 4.5 19:18:26 10° W 19:21:06 16° SW 19:23:51 10° S
Cosmos 1745 Rocket 4.2 19:16:02 10° NNW 19:22:14 77° W 19:28:21 10° S
Resurs 1-3 4.0 19:18:03 10° S 19:22:24 67° WSW 19:26:48 10° NNW
Cosmos 1666 4.4 19:20:29 10° NNE 19:23:09 18° ENE 19:25:37 11° ESE
Meteor 2-17 Rocket 4.5 19:18:05 10° N 19:24:16 73° E 19:30:24 10° SSE
Cosmos 1709 Rocket 4.0 19:18:33 10° N 19:24:40 69° ENE 19:30:45 10° SSE
NOSS 3-4 (A) 4.4 19:22:45 10° NW 19:29:17 48° NE 19:36:33 10° ESE
NOSS 3-4 (C) 4.5 19:22:52 10° NW 19:29:23 47° NE 19:36:39 10° ESE
Cosmos 1666 Rocket 3.5 19:25:45 10° N 19:30:11 81° E 19:34:32 10° SSE
BREEZE-M DEB (TANK) 4.2 19:26:09 10° W 19:30:21 55° SSW 19:38:54 10° ESE
USA 307 3.4 19:31:06 10° WNW 19:35:21 59° NNE 19:39:31 10° E
Cosmos 1437 3.1 19:33:32 12° SSE 19:35:50 35° E 19:38:28 10° NNE
CZ-2C R/B 4.0 19:32:48 10° NNE 19:37:10 48° E 19:41:33 10° S
NOSS 3-3 (A) 3.9 19:33:49 10° SSW 19:39:28 61° ESE 19:45:56 10° NE
NOSS 3-3 (C) 3.9 19:33:56 10° SSW 19:39:35 61° ESE 19:46:02 10° NE
Intercosmos 24 4.4 19:38:10 10° SSW 19:41:46 55° WNW 19:45:22 10° N
Cosmos 1354 Rocket 4.0 19:37:19 10° SSW 19:42:33 89° WNW 19:47:50 10° NNE
ATLAS 2AS CENTAUR R/B 3.8 19:35:32 10° NW 19:42:35 40° NNE 19:49:08 10° E
Sich 1 4.1 19:40:08 10° NNW 19:44:16 44° W 19:48:24 10° SSW
USA 245 2.6 19:43:37 22° SE 19:44:37 37° ENE 19:46:46 10° N
SJ 16-02 2.5 19:42:36 15° SE 19:45:17 25° E 19:48:55 10° NE
OBJECT-B 3.7 19:45:00 10° SW 19:46:53 15° W 19:48:48 10° NW
SPOT 1/Viking Rocket 3.6 19:42:56 12° SSE 19:47:42 72° ENE 19:52:54 10° N
Meteor 1-26 Rocket 4.2 19:42:31 10° S 19:48:12 85° E 19:53:45 10° NNE
USA 308 3.2 19:44:42 10° WNW 19:48:59 66° NNE 19:52:37 14° ESE
Cosmos 2315 Rocket 4.0 19:43:39 10° S 19:50:01 80° E 19:56:26 10° N
USA 215 4.4 19:46:33 10° ENE 19:52:37 42° N 19:58:41 10° WNW
Cosmos 1500 3.1 19:49:35 10° N 19:53:21 74° E 19:56:07 17° SSE
Iridium 4 Rocket 4.3 19:51:14 15° SSE 19:55:37 42° E 20:01:09 10° NNE
Terra 2.9 19:54:08 16° ESE 19:57:12 32° ENE 20:01:24 10° N
BREEZE M DEB (TANK) 1.8 19:53:19 10° WNW 19:58:14 86° N 19:59:41 21° E
Meteor 1-14 Rocket 4.3 19:53:20 10° NNW 19:59:15 89° E 20:04:21 13° S
Cosmos 2082 Rocket 2.8 19:54:33 10° NNW 19:59:58 46° NE 20:03:59 18° ESE
SPOT 3 Rocket 4.1 19:57:20 10° S 20:02:23 56° W 20:07:28 10° NNW
Cosmos 1151 Rocket 3.3 19:58:19 10° SSW 20:02:40 70° W 20:07:04 10° N
SPOT 5 3.4 19:59:19 18° SE 20:02:54 50° ENE 20:08:01 10° N
X-37B 2.3 20:01:27 10° WSW 20:03:53 20° SSW 20:04:43 18° S
Cosmos 158 Rocket 4.4 19:59:14 10° NNW 20:03:56 45° ENE 20:07:03 20° SE
CREW DRAGON DEMO-1 DEB 2.3 20:01:33 10° WNW 20:04:12 88° NNE 20:05:17 31° ESE
COSMOS 2406 3.2 20:00:44 10° NNW 20:06:27 89° ENE 20:10:34 19° SSE
Resurs 01 Rocket 2.8 20:02:56 10° SSW 20:07:07 40° W 20:11:20 10° NNW
Cosmos 2084 3.3 20:03:39 10° SW 20:07:48 89° NW 20:12:05 10° NE
Cosmos 2228 Rocket 4.1 20:08:07 22° SE 20:09:58 29° E 20:13:51 10° NNE
Cosmos 1538 Rocket 4.0 20:09:48 10° NNW 20:15:13 87° ENE 20:18:46 22° SSE
Meteor 2-6 Rocket 4.1 20:12:09 13° S 20:16:56 68° E 20:22:27 10° NNE
Meteor 1-27 Rocket 4.5 20:16:22 21° SE 20:19:31 37° E 20:24:54 10° NNE
Cosmos 1271 Rocket 3.1 20:19:15 27° SSE 20:21:08 48° E 20:25:01 10° NNE
Cosmos 2278 Rocket 2.1 20:20:07 10° SSW 20:25:45 75° ESE 20:31:26 10° NNE
Spot 2 Rocket 3.6 20:22:06 19° S 20:25:46 72° WSW 20:30:50 10° NNW
BREEZE-M DEB (TANK) 0.9 20:25:33 10° WNW 20:27:35 87° NNE 20:27:56 58° E
Cosmos 1782 4.4 20:24:27 10° SW 20:28:08 35° WNW 20:31:50 10° N
USA 305 2.8 20:25:10 10° WNW 20:29:26 75° SSW 20:31:23 31° SE
Cosmos 1680 Rocket 4.1 20:26:34 10° NNW 20:31:42 45° ENE 20:34:33 24° ESE
Cosmos 1943 Rocket 3.6 20:32:27 18° ESE 20:32:59 18° E 20:36:40 10° ENE
Cosmos 1515 Rocket 3.7 20:29:37 14° SSW 20:33:21 74° W 20:37:46 10° N
ERS-1 Rocket 2.9 20:30:20 25° SSE 20:33:22 90° E 20:38:26 10° NNW
Gbstr 26 Del rocket 4.5 20:26:32 10° WNW 20:34:17 70° N 20:40:48 10° E
Cosmos 1869 Rocket 3.7 20:32:57 10° N 20:37:14 55° ENE 20:38:55 33° SE
CZ-4C R/B 3.3 20:31:10 10° NW 20:38:16 57° WSW 20:43:47 22° SSE
Meteor 1-11 Rocket 3.8 20:38:31 10° N 20:44:32 83° ENE 20:47:53 28° SSE
ATLAS 5 CENTAUR R/B 4.2 20:42:55 10° WNW 20:47:10 21° WSW 20:51:47 10° SSW
USA 306 3.1 20:44:30 10° WNW 20:48:42 58° SW 20:49:58 40° SSE
Cosmos 1818 4.5 20:44:53 10° NNW 20:50:06 42° NE 20:53:35 19° ESE
Cosmos 1812 3.9 20:47:19 13° SW 20:50:33 41° WNW 20:54:14 10° N
Cosmos 1340 Rocket 3.3 20:50:29 10° N 20:54:27 48° ENE 20:55:28 39° ESE
ARIANE 5 R/B 3.7 20:52:22 19° SSW 20:54:55 37° W 20:58:58 10° NNW
Cosmos 1707 Rocket 4.2 20:55:52 34° ESE 20:56:40 37° E 21:00:44 10° NNE
Cosmos 1666 3.8 20:55:24 10° NNW 20:58:51 37° W 21:00:28 24° SW
Meteor 2-12 Rocket 4.4 20:55:57 10° NNW 21:02:02 79° W 21:05:22 28° S
Cosmos 1833 Rocket 3.8 20:58:53 10° NW 21:03:58 35° WSW 21:07:04 20° SSW
Cosmos 2154 Rocket 4.0 20:59:56 10° N 21:06:19 82° W 21:09:42 29° S
SL-24 DEB 4.2 21:05:35 37° S 21:07:24 80° W 21:12:02 10° N
BREEZE-M R/B 2.1 21:05:22 10° W 21:07:47 66° N 21:07:49 65° N
Cosmos 923 Rocket 4.0 21:02:47 10° NNW 21:08:04 76° WSW 21:10:12 37° S
Cosmos 1898 Rocket 3.7 21:07:15 37° SSE 21:08:54 51° ESE 21:14:04 10° NNE
Cosmos 1536 2.8 21:05:27 10° NNW 21:09:31 77° W 21:10:33 48° S
Cosmos 1743 2.7 21:10:06 10° N 21:13:57 64° E 21:14:28 56° ESE
USA 307 3.4 21:11:14 10° WNW 21:15:15 41° SW 21:15:37 40° SSW
H-2A R/B 3.7 21:12:23 10° N 21:16:34 69° WNW 21:18:18 34° SSW
Cosmos 962 Rocket 4.4 21:14:10 10° N 21:20:19 78° E 21:22:54 37° SSE
NOSS 3-4 (A) 4.1 21:13:38 10° NW 21:20:28 57° WSW 21:24:06 31° S
NOSS 3-4 (C) 4.1 21:13:44 10° NW 21:20:34 57° WSW 21:24:12 31° S
Cosmos 990 Rocket 3.9 21:20:01 35° SSW 21:22:18 80° ESE 21:27:35 10° NNE
SJ 16-02 2.6 21:19:30 10° SW 21:23:40 39° WNW 21:27:52 10° N
Nadezhda 1 Rocket 4.2 21:19:51 23° SSW 21:23:57 72° W 21:30:12 10° N
Cosmos 1975 4.0 21:20:46 10° N 21:24:18 30° ENE 21:24:44 29° E
Cosmos 2297 3.8 21:22:46 39° S 21:24:41 59° ESE 21:30:16 10° NE
Cosmos 1733 Rocket 3.1 21:22:47 10° N 21:27:05 61° ENE 21:27:49 52° ESE
USA 308 3.8 21:24:55 10° WNW 21:28:43 33° SW 21:28:43 33° SW
Cosmos 1461 4.3 21:31:04 28° E 21:31:04 28° E 21:34:13 10° NE
Cosmos 1900 4.4 21:30:20 47° SSE 21:31:27 59° ESE 21:36:25 10° NE
ATLAS 2AS CENTAUR R/B 2.8 21:26:46 10° NW 21:34:08 73° SW 21:37:04 37° SSE
Terra 2.9 21:33:01 26° SW 21:34:53 35° W 21:39:17 10° NNW
USA 215 4.0 21:28:40 10° E 21:34:57 52° NNE 21:41:16 10° NW
Cosmos 1544 3.6 21:33:16 10° NNW 21:36:46 48° W 21:37:03 46° WSW
ERBS 2.9 21:39:57 10° NW 21:43:12 50° NNE 21:43:15 50° NE
Cosmos 2082 Rocket 3.3 21:38:56 10° NW 21:43:54 33° WSW 21:45:50 26° SW
Cosmos 2112 Rocket 4.4 21:41:27 10° NNW 21:46:42 56° WSW 21:48:11 42° SSW
Cosmos 2181 Rocket 4.0 21:44:37 42° SSE 21:46:44 69° E 21:52:50 10° NNE
Cosmos 44 3.6 21:45:29 10° NW 21:50:52 62° WSW 21:51:59 50° S
Cosmos 967 Rocket 4.3 21:49:30 32° SSW 21:52:35 79° ESE 21:58:53 10° NE
Cosmos 2366 rocket 3.9 21:47:35 10° N 21:53:47 79° E 21:55:56 44° SSE
Spot 4 3.8 21:55:19 57° SSE 21:56:20 88° ENE 22:01:14 10° NNW
Cosmos 2084 Rocket 3.3 21:54:46 10° NW 21:59:03 72° SW 21:59:14 70° SSW
Cosmos 2341 Rocket 4.3 21:55:18 10° NNW 22:01:37 62° W 22:04:08 37° SSW
BREEZE-M DEB (TANK) 3.6 21:57:48 10° WNW 22:02:44 43° N 22:03:26 34° NE
Cosmos 1515 4.1 22:04:29 53° W 22:04:42 54° WNW 22:08:25 10° N
Cosmos 2278 Rocket 4.3 22:05:53 10° W 22:10:27 24° NW 22:15:02 10° N
Cosmos 1862 Rocket 3.6 22:10:39 62° SW 22:11:11 70° W 22:15:31 10° N
Cosmos 1937 Rocket 3.6 22:09:32 40° SW 22:11:20 69° WNW 22:16:31 10° NNE
Cosmos 489 Rocket 4.4 22:05:07 10° NNW 22:11:21 76° WSW 22:13:17 47° S
Cosmos 1703 Rocket 4.1 22:11:43 43° E 22:11:45 43° E 22:15:56 10° NNE
SL-24 R/B - RUBIN 2 4.5 22:07:38 10° NW 22:12:42 41° WSW 22:13:07 40° SW
Cosmos 1782 Rocket 4.3 22:09:25 10° N 22:13:40 41° ENE 22:14:13 39° E
Cosmos 1943 Rocket 2.2 22:13:55 40° SW 22:16:02 80° WNW 22:21:41 10° NNE
Cosmos 2218 Rocket 4.1 22:09:53 10° NNW 22:16:09 72° W 22:18:16 44° SSW
Cosmos 2369 Rocket 2.2 22:17:10 53° SSE 22:18:09 62° ESE 22:23:44 10° NNE
Meteor 1-19 Rocket 4.2 22:19:24 46° SW 22:20:59 71° WNW 22:26:25 10° N
Gbstr 26 Del rocket 3.9 22:14:35 10° WNW 22:21:49 71° SSW 22:23:48 45° SE
Cosmos 1238 Rocket 4.3 22:17:37 10° NNW 22:23:32 48° W 22:25:13 37° SW
Cosmos 1048 Rocket 4.2 22:19:00 10° NNW 22:24:20 66° ENE 22:25:40 48° SE
COBE Rocket 4.0 22:24:30 57° SE 22:25:30 77° ENE 22:30:40 10° N
Gblst 52 Del rocket 4.3 22:20:09 10° WNW 22:27:03 79° SSW 22:29:37 37° SE
Cosmos 1607 4.2 22:26:50 45° SSE 22:27:59 50° ESE 22:34:14 10° NE
Okean 1 4.4 22:29:36 34° W 22:30:09 35° WNW 22:33:52 10° N
Okean 1-7 3.0 22:31:00 65° E 22:31:00 65° E 22:35:13 10° NNE
Thor Agena Rocket 3.9 22:27:23 10° NNE 22:32:29 48° E 22:33:11 45° SE
Cosmos 1818 4.0 22:28:33 10° NW 22:33:44 44° WSW 22:34:12 43° SW
Cosmos 2298 Rocket 4.2 22:35:33 52° SE 22:36:08 55° ESE 22:41:19 10° NNE
Cosmos 1656 Rocket 3.7 22:35:34 51° SE 22:36:13 54° ESE 22:41:36 10° NE
Nadezhda 3 Rocket 4.1 22:35:11 45° SSE 22:36:54 62° E 22:43:02 10° NNE
DNEPR-1 R/B 4.4 22:34:46 27° WSW 22:37:51 62° NW 22:42:41 10° NE
ALOS 2 2.7 22:41:06 58° WSW 22:41:15 59° W 22:45:36 10° NNW
Cosmos 2263 4.2 22:43:18 55° S 22:44:31 72° ESE 22:50:18 10° NNE
Cosmos 1356 Rocket 3.6 22:43:07 10° N 22:47:22 62° ENE 22:47:36 61° E
Meteor 2-4 Rocket 3.8 22:47:05 48° SW 22:48:40 72° WNW 22:54:19 10° N
Meteor 1-13 Rocket 4.2 22:51:57 53° SSE 22:53:04 67° E 22:58:34 10° NNE
SL-27 R/B 3.3 22:51:23 10° NNW 22:53:51 46° N 22:53:51 46° N
BREEZE-M DEB (TANK) 3.9 22:45:25 10° WNW 22:57:56 57° SW 22:58:40 53° S
Cosmos 1975 4.4 22:57:22 10° NW 23:00:28 24° W 23:00:28 24° W
PSLV R/B 4.1 22:56:28 10° NNE 23:00:43 46° E 23:00:45 46° E
Resurs 1-4 Rocket 4.4 22:59:52 10° ENE 23:01:33 11° E 23:03:12 10° ESE
Sich 1 Rocket 3.7 22:58:59 10° N 23:03:33 65° ENE 23:04:02 60° ESE
RESURS DK-1 2.6 22:59:48 10° NW 23:03:31 59° W 23:03:31 59° W
Cosmos 2150 Rocket 3.9 23:04:29 60° SSW 23:05:31 88° ESE 23:10:52 10° NNE
Cosmos 2297 Rocket 4.3 23:02:58 10° N 23:07:27 23° NE 23:11:53 10° E
SeaSat 1 2.5 23:03:13 10° NE 23:08:06 57° ESE 23:08:32 54° SE
Cosmos 1833 4.2 23:02:31 10° NNW 23:08:14 68° WSW 23:09:23 54° S
Cosmos 1461 4.0 23:07:22 32° W 23:09:07 47° NW 23:13:35 10° NNE
Cosmos 2242 Rocket 4.1 23:09:01 45° W 23:09:31 47° WNW 23:13:51 10° N
Meteor 1-12 Rocket 4.3 23:05:29 10° NNW 23:11:21 73° W 23:12:44 53° SSW
Cosmos 2239 Rocket 4.5 23:05:25 10° NNW 23:11:43 75° W 23:13:34 48° SSW
Cosmos 1400 Rocket 4.3 23:12:49 10° N 23:16:27 29° ENE 23:17:25 26° E
ISS -2.4 23:18:17 37° NE 23:18:17 37° NE 23:20:32 10° ENE
USA 215 3.1 23:13:57 27° SE 23:17:49 78° SW 23:24:23 10° WNW
Cosmos 494 Rocket 4.0 23:14:26 10° NNW 23:19:34 61° WSW 23:20:07 57° SW
Cosmos 1300 Rocket 3.4 23:16:59 10° N 23:21:25 86° E 23:21:41 78° SSE
Okean 2 Rocket 3.0 23:19:07 10° N 23:23:32 72° E 23:23:56 66° ESE
ATLAS 2AS CENTAUR R/B 4.4 23:19:39 10° WNW 23:23:44 16° WSW 23:24:29 16° WSW
Cosmos 2151 Rocket 3.9 23:19:49 10° N 23:24:18 58° ENE 23:25:02 51° ESE
Cosmos 1867 3.7 23:25:56 42° WSW 23:27:45 71° NW 23:33:15 10° NE
Cosmos 1125 Rocket 3.5 23:26:49 55° SW 23:27:58 77° WNW 23:33:13 10° NNE
Cosmos 1842 4.4 23:29:12 32° E 23:29:15 32° E 23:32:44 10° NNE
Cosmos 44 Rocket 3.3 23:24:50 10° NW 23:30:06 88° SW 23:31:24 52° SE
Cosmos 1378 4.0 23:34:53 39° WNW 23:34:53 39° WNW 23:38:13 10° N
ATLAS CENTAUR R/B 1.3 23:38:30 67° NNW 23:38:30 67° NNW 23:42:10 10° NE
Cosmos 1934 Rocket 4.0 23:34:18 10° NNW 23:40:25 67° W 23:42:10 46° SSW
Cosmos 2344 4.3 23:31:17 10° NW 23:40:33 72° SW 23:51:07 17° SSE
USA 281 3.6 23:36:59 19° SE 23:41:48 63° ENE 23:48:17 10° NNW
YAOGAN 11 4.1 23:41:08 59° SE 23:41:49 72° ENE 23:46:06 10° N
Cosmos 1726 3.6 23:39:24 10° N 23:42:42 30° ENE 23:43:27 27° E
Meteor 1-22 Rocket 4.4 23:36:49 10° N 23:42:48 76° ENE 23:45:14 39° SSE
Cosmos 1339 Rocket 4.5 23:42:53 44° S 23:45:07 87° E 23:51:32 10° N
USA 81 4.0 23:43:57 10° N 23:49:16 86° W 23:50:37 52° S
Okean 3 4.4 23:50:46 34° W 23:51:14 35° WNW 23:55:09 10° N
